ATLAS 5 CENTAUR DEB, 43983

Orbit data source: Space-Track

ATLAS 5 CENTAUR DEB, 43983 is space debris in HEO originally from a launch on Wed, 17 Sep 2014 UTC launched from the Air Force Eastern Test Range (AFETR). Debris objects in space refer to the collection of defunct objects orbiting the Earth. Examples of debris include non-operational satellites, rocket bodies, and fragments generated from explosions, collisions, or faulty payload assembly.

Loading next visibility...
Identifier
43983, 2014-055AN
Orbit
HEO
Country
Flag of USUS
Related business
Flag of USUnited Launch Alliance/Lockheed Martin (US)
Manufacturer
Unknown
Mission
Spacecraft
Bus & Motor
Unknown
Mass
Unknown
Launch date (UTC)
2014-09-17 (11 years ago)
Launch vehicle
Unknown
Launch site
Air Force Eastern Test Range (AFETR)
Object type
Payload
Rocket body
Debris
Shape & HBR
Unknown shape, 1.1 m
Radar Cross Section
Small (<0.1 m²)

Expand to show TLE details & history
Last TLE update: 2 days ago

TLE from 2 days ago
0 ATLAS 5 CENTAUR DEB
1 43983U 14055AN  25287.40497872 -.00000053  00000-0  00000-0 0  9996
2 43983  20.3883 141.0578 4917642 168.6264 208.7337  1.90081077 49326
Epoch: 2025-10-14T09:43Z
TLE epoch observation values (Epoch: 2025-10-14T09:43:10.161Z)
Latitude
-0.00002°
Longitude
-27.89277°
Altitude
33,909.282 km
Speed
2.304 km/s
True Right ascension
09h 24m 22s
True Declination
0° 00' 00"
Sunlit
Object was in daylight at epoch
Visualization orbit readout
Latitude
Unknown
Longitude
Unknown
Altitude
Unknown
Speed
Unknown
Apparent Right ascension
Unknown
Apparent Declination
Unknown
Sunlit
N/A
Visualization observer readout
Local Sidereal Time
13:21:33
Azimuth
Unknown
Elevation
Unknown
Doppler factor
Unknown
Orbital elements
Apogee altitude
34,690.249 km
Perigee altitude
7,613.635 km
Semi-major axis
27,530.079 km
Eccentricity
0.49176
Inclination
20.3883°
RAAN
141.0578°
Arg. of periapsis
168.6264°
True anomaly
191.38505°
Mean anomaly
208.7337°
Eccentric anomaly
199.38273°
Mean motion
0.47515 °/min
Orbital period
757.65 mins
BSTAR
0
Loading maneuver chart data...
Computing Atmospheric mass density...

Documentation

Showing up to 5 results
|